EW4498 Weather Reports


Display with metric or nautical units.
time (UTC)temp
F
wind
direction
speed
MPH
gust
MPH
rain 1hr
in
rain 24hr
in
rain mn
in
humidity
%
barometer
mb
20260902230017 59 236 1.0 4.0 0.00 0.17 0.00 92 1014.3
20260902224510 59 225 1.0 5.0 0.00 0.17 0.00 92 1014.3
20260902223008 59 238 1.0 5.0 0.00 0.17 0.00 92 1014.4
20260902221503 59 241 2.0 5.0 0.00 0.17 0.00 92 1014.5
20260902220001 59 222 4.0 9.0 0.00 0.17 0.00 92 1014.5
20260902214501 58 220 0.0 6.0 0.00 0.17 0.17 91 1014.5
20260902213100 58 238 2.0 6.0 0.00 0.17 0.17 91 1014.4
20260902211559 59 223 1.0 5.0 0.00 0.17 0.17 91 1014.3
20260902210058 59 223 3.0 7.0 0.00 0.17 0.17 91 1014.3
20260902204559 59 223 3.0 7.0 0.00 0.17 0.17 91 1014.4
20260902203138 59 226 2.0 8.0 0.00 0.17 0.17 91 1014.5
20260902201551 59 227 3.0 7.0 0.00 0.17 0.17 91 1014.5
20260902200041 59 242 4.0 9.0 0.00 0.17 0.17 91 1014.6
20260902194642 59 243 2.0 6.0 0.00 0.17 0.17 91 1014.6
20260902193041 59 235 2.0 7.0 0.00 0.17 0.17 91 1014.5
20260902191522 58 229 2.0 4.0 0.00 0.17 0.17 90 1014.5
20260902190058 58 226 2.0 6.0 0.00 0.17 0.17 90 1014.5
20260902184551 58 235 1.0 5.0 0.00 0.17 0.17 89 1014.5
20260902183142 59 225 1.0 6.0 0.00 0.17 0.17 89 1014.4
20260902181554 59 229 4.0 9.0 0.02 0.17 0.17 89 1014.3
20260902180142 59 232 4.0 11.0 0.03 0.17 0.17 88 1014.4
20260902174552 60 225 5.0 10.0 0.03 0.17 0.17 88 1014.2
20260902173041 60 249 5.0 12.0 0.05 0.17 0.17 89 1014.2
20260902171642 61 194 4.0 9.0 0.03 0.16 0.16 90 1014.3
20260902164511 61 226 3.0 9.0 0.02 0.14 0.14 89 1014.5
20260902163119 61 239 3.0 7.0 0.00 0.13 0.13 89 1014.4
20260902161551 61 230 1.0 6.0 0.02 0.13 0.13 88 1014.5
20260902160041 61 222 3.0 6.0 0.04 0.13 0.13 88 1014.6
20260902154549 61 252 4.0 7.0 0.06 0.13 0.13 88 1014.5
20260902153047 60 238 3.0 9.0 0.11 0.13 0.13 89 1014.7
20260902151547 60 201 4.0 8.0 0.10 0.11 0.11 87 1014.8
20260902150046 61 221 3.0 9.0 0.08 0.09 0.09 87 1014.9
20260902144546 62 234 3.0 11.0 0.06 0.06 0.06 86 1014.8
20260902143043 64 217 4.0 13.0 0.01 0.02 0.02 83 1014.9
20260902141544 66 277 7.0 11.0 0.00 0.01 0.01 75 1014.6
20260902140042 68 236 4.0 14.0 0.00 0.01 0.01 70 1014.5
20260902134542 67 254 9.0 16.0 0.00 0.04 0.01 71 1014.5
20260902133041 68 235 7.0 17.0 0.00 0.04 0.01 70 1014.6
20260902131540 67 234 7.0 16.0 0.00 0.04 0.01 72 1014.5
20260902130039 67 229 10.0 21.0 0.00 0.04 0.01 72 1014.7
20260902124538 68 225 8.0 15.0 0.00 0.04 0.01 72 1014.6
20260902123043 67 190 7.0 17.0 0.00 0.04 0.01 76 1014.8
20260902121536 67 274 5.0 15.0 0.00 0.04 0.01 76 1014.8
20260902120037 67 186 7.0 12.0 0.00 0.04 0.01 77 1014.9
20260902114539 68 220 7.0 16.0 0.00 0.04 0.01 74 1015.0
20260902113040 69 250 6.0 16.0 0.00 0.04 0.01 71 1014.9
20260902111533 70 279 6.0 18.0 0.00 0.04 0.01 68 1015.0
20260902110031 68 236 9.0 18.0 0.00 0.04 0.01 74 1015.0
20260902104530 69 218 5.0 17.0 0.00 0.05 0.01 72 1015.0
20260902103030 69 202 5.0 18.0 0.00 0.05 0.01 72 1015.0
20260902101529 69 247 7.0 19.0 0.00 0.05 0.01 73 1015.0
20260902100026 67 213 6.0 15.0 0.00 0.05 0.01 75 1015.0
20260902094520 66 244 8.0 19.0 0.00 0.05 0.01 76 1015.1
20260902093019 67 224 4.0 12.0 0.00 0.05 0.01 78 1015.1
20260902091516 66 232 8.0 15.0 0.00 0.05 0.01 77 1015.1
20260902090019 66 251 6.0 12.0 0.00 0.05 0.01 78 1015.2
20260902084522 66 227 5.0 11.0 0.00 0.05 0.01 81 1015.3
20260902083010 64 228 3.0 11.0 0.00 0.05 0.01 84 1015.2
20260902081507 63 214 4.0 11.0 0.00 0.05 0.01 83 1015.2
20260902080005 63 236 6.0 12.0 0.00 0.05 0.01 83 1015.2
20260902074501 63 226 6.0 12.0 0.00 0.05 0.01 84 1015.2
20260902073100 62 219 5.0 11.0 0.00 0.05 0.01 85 1015.1
20260902071600 62 221 4.0 7.0 0.00 0.05 0.01 87 1015.0
20260902070053 61 205 3.0 9.0 0.00 0.05 0.01 87 1015.0
20260902064600 61 226 4.0 8.0 0.00 0.05 0.01 88 1015.0
20260902063148 60 230 3.0 10.0 0.00 0.05 0.01 89 1015.0
20260902060043 59 268 3.0 7.0 0.00 0.05 0.01 90 1015.0
20260902054548 59 236 3.0 5.0 0.00 0.05 0.01 91 1015.0
20260902053045 58 201 2.0 5.0 0.00 0.05 0.01 91 1014.9
20260902051538 58 250 2.0 6.0 0.00 0.05 0.01 91 1014.9
20260902050034 58 216 2.0 5.0 0.00 0.05 0.01 91 1014.8
20260902044532 57 213 2.0 5.0 0.00 0.05 0.01 91 1015.0
20260902043031 57 215 2.0 6.0 0.00 0.05 0.01 92 1014.9
20260902041530 56 200 3.0 6.0 0.00 0.05 0.01 92 1014.9
20260902040032 55 212 3.0 6.0 0.01 0.05 0.01 92 1015.0
20260902034529 55 225 0.0 3.0 0.01 0.05 0.01 92 1014.9
20260902033028 55 213 2.0 5.0 0.01 0.05 0.01 92 1015.0
20260902031528 54 213 0.0 4.0 0.01 0.05 0.01 91 1015.1
20260902030027 54 239 0.0 2.0 0.00 0.04 0.00 91 1015.0
20260902024527 54 240 0.0 3.0 0.00 0.05 0.00 92 1015.1
20260902023034 53 267 0.0 0.0 0.00 0.05 0.00 91 1015.1
20260902021525 53 267 0.0 0.0 0.00 0.05 0.00 91 1015.0
20260902020026 53 267 0.0 0.0 0.00 0.05 0.00 90 1015.0
20260902014533 54 267 0.0 0.0 0.00 0.05 0.00 89 1015.0
20260902013021 54 267 0.0 0.0 0.00 0.05 0.00 90 1014.9
20260902011538 54 267 0.0 0.0 0.00 0.05 0.00 89 1015.0
20260902010019 55 267 0.0 0.0 0.00 0.05 0.00 87 1015.0
20260902004517 55 267 0.0 0.0 0.00 0.05 0.00 87 1015.1
20260902003014 56 267 0.0 0.0 0.00 0.05 0.00 86 1015.1
20260902001513 57 267 0.0 3.0 0.00 0.05 0.00 86 1015.1
20260902000010 57 259 0.0 3.0 0.00 0.05 0.00 86 1015.0
20260901234508 58 300 0.0 5.0 0.00 0.05 0.00 86 1015.2
20260901233006 58 319 0.0 6.0 0.00 0.05 0.00 86 1015.2
20260901231506 59 306 1.0 5.0 0.00 0.05 0.00 87 1015.2